Weather Roundup
Issued by NWS Springfield, MO

Home | Current Version | Previous Version | Text Only | Print | Product List | Glossary On
Versions: 1 2 3 4 5 6 7 8 9 10 11 12 13 14 15 16 17 18 19 20 21 22 23 24 25 26 27 28 29 30 31 32 33 34 35 36 37 38 39 40 41 42 43 44 45 46 47 48 49 50
000
NZUS99 KSGF 300010
HRRSGF

HOURLY WEATHER
NATIONAL WEATHER SERVICE SPRINGFIELD MO
700 PM CDT SAT AUG 29 2015

......SGF CWA......

CITY           SKY/WX    TMP DP  RH WIND       PRES   REMARKS
SPRINGFIELD    PTCLDY    78  68  71 SE7       29.98S
6HR MIN TEMP:  78; 6HR MAX TEMP:  83;

JOPLIN         MOCLDY    79  71  76 NW7       29.98R
6HR MIN TEMP:  79; 6HR MAX TEMP:  83;

WEST PLAINS    PTCLDY    74  65  73 SE6       30.03S
6HR MIN TEMP:  69; 6HR MAX TEMP:  77;

ROLLA          CLOUDY    77  69  76 S9        29.99S
6HR MIN TEMP:  77; 6HR MAX TEMP:  83; 6HR PCP: TRACE;

OSAGE BEACH    CLOUDY    79  70  73 CALM      29.99S
BRANSON        MOCLDY    81  66  61 SE8       30.00R

......SURROUNDING SGF CWA......

CITY           SKY/WX    TMP DP  RH WIND       PRES   REMARKS
CHANUTE        SUNNY     80  64  58 N5        29.99S
PARSONS        SUNNY     80  68  66 N3        29.99S
COFFEYVILLE    SUNNY     80  66  62 N5        29.97S
EMPORIA        CLOUDY    72  62  71 NE3       30.02S
GROVE OK       PTCLDY    82  70  65 CALM      29.96S
ROGERS AR      MOCLDY    82  69  64 S14       29.99S
SILOAM SPRINGS PTCLDY    81  66  61 SE8       29.96F
NEAR YELLVILLE PTCLDY    79  63  57 SE3       29.98S

......KANSAS AND MISSOURI......

CITY           SKY/WX    TMP DP  RH WIND       PRES   REMARKS
KANSAS CTY INT CLOUDY    74  67  78 N9        30.01S
DOWNTOWN KC    CLOUDY    76  68  76 N6        30.00R
COLUMBIA       CLOUDY    78  70  76 NW3       29.99S
SEDALIA        CLOUDY    79  69  71 CALM      30.00S
ST JOSEPH      MOCLDY    71  65  81 N9        30.02F
ST LOUIS       MOCLDY    81  66  60 S7        29.99S
SPIRIT OF STL  CLEAR     80  71  74 CALM      29.97S
KIRKSVILLE     CLOUDY    75  69  81 N7        30.01S
WICHITA        PTSUNNY   73  61  65 NE10      30.02S
TOPEKA         CLOUDY    74  66  76 NE5       30.01S
OLATHE         CLOUDY    75  66  73 N5        30.00S

......TENNESSEE......

CITY           SKY/WX    TMP DP  RH WIND       PRES   REMARKS
MEMPHIS        MOCLDY    86  62  44 S3        30.00R
NASHVILLE      MOCLDY    76  65  68 S12       30.08S

......ARKANSAS.......

CITY           SKY/WX    TMP DP  RH WIND       PRES   REMARKS
FAYETTEVILLE   MOCLDY    79  70  74 S6        29.99S
FT SMITH       PTCLDY    86  68  54 SE6       29.93S
LITTLE ROCK    CLOUDY    85  66  53 CALM      29.98S

......OKLAHOMA.......

CITY           SKY/WX    TMP DP  RH WIND       PRES   REMARKS
TULSA          MOSUNNY   83  71  67 N7        29.93F
PONCA CITY     MOSUNNY   80  64  58 NW6       29.97F
MCALESTER      PTSUNNY   86  75  69 CALM      29.93F HX  95
OKLAHOMA CITY  MOSUNNY   88  61  40 N7        29.95F

......IOWA............

CITY           SKY/WX    TMP DP  RH WIND       PRES   REMARKS
DES MOINES     CLOUDY    71  64  78 N6        30.02S
QUAD CITIES    CLOUDY    72  67  84 NE5       30.00S

......ILLINOIS........

CITY           SKY/WX    TMP DP  RH WIND       PRES   REMARKS
QUINCY         CLOUDY    77  69  76 N5        29.99S
CHICAGO        LGT RAIN  68  66  93 N3        30.00S FOG




USA.gov is the U.S. government's official web portal to all federal, state and local government web resources and services.